DateTimeUTC,F1_A11,F1_S11,BsB_S11,BsG_S11,BsR_S11,BbsB_S11,BbsG_S11,BbsR_S11,BaB_A11,BaG_A11,BaR_A11,T_S11,U_S11,P_S11,T1_A11
2020-07-10T00:00:00Z,00000380,20000600,,,,,,,,,,25.4,05.4,0673.0,31.1
2020-07-10T00:01:00Z,00000380,20000600,,,,,,,,,,25.4,05.4,0673.0,31.1
2020-07-10T00:02:00Z,00000380,20000600,,,,,,,,,,25.4,05.4,0673.0,31.1
2020-07-10T00:03:00Z,00000380,60000600,,,,,,,,,,25.4,05.4,0673.0,31.1
2020-07-10T00:04:00Z,00000380,40000600,0001.83,0001.20,0000.43,0001.55,0000.63,-000.29,-000.04,0000.08,-000.05,25.2,05.6,0674.0,31.1
2020-07-10T00:05:00Z,00000380,00000600,0001.83,0001.26,0000.55,-000.04,0000.67,0000.05,0000.12,0000.12,0000.08,25.1,05.7,0674.0,31.1
2020-07-10T00:06:00Z,00000380,00000600,0002.85,0001.59,0000.39,0000.34,-000.16,-000.17,0000.13,0000.19,0000.14,25.1,05.7,0674.0,31.1
2020-07-10T00:07:00Z,00000380,00000600,0001.16,0001.66,0000.37,0000.86,0000.11,-000.01,0000.03,-000.10,0000.02,25.1,05.7,0674.0,31.1
2020-07-10T00:08:00Z,00000380,00000600,0001.83,0001.34,0000.41,0000.15,-000.06,0000.21,-000.07,0000.10,0000.01,25.1,05.7,0674.0,31.1
2020-07-10T00:09:00Z,00000380,00000600,0002.64,0001.69,0000.65,0000.56,0000.17,-000.44,0000.18,0000.15,0000.19,25.1,05.7,0674.0,31.1
2020-07-10T00:10:00Z,00000380,00000600,0002.08,0001.41,0000.63,0000.19,0000.00,-000.23,0000.18,-000.09,0000.05,25.1,05.7,0674.0,31.1
2020-07-10T00:11:00Z,00000380,00000600,0002.53,0001.37,0000.74,0000.75,0000.10,-000.07,-000.07,0000.06,0000.02,25.1,05.7,0674.0,31.1
2020-07-10T00:12:00Z,00000380,00000600,0002.15,0001.37,0000.16,-000.58,0000.21,-000.06,0000.03,0000.13,-000.05,25.1,05.7,0674.0,31.1
2020-07-10T00:13:00Z,00000380,00000600,0002.37,0001.15,0000.26,0001.41,0000.30,0000.03,0000.17,0000.12,0000.18,25.1,05.7,0674.0,31.1
2020-07-10T00:14:00Z,00000380,00000600,0001.55,0001.13,0000.61,0000.35,0000.15,-000.03,0000.06,-000.08,0000.11,25.0,05.7,0674.0,31.1
2020-07-10T00:15:00Z,00000380,00000600,0002.64,0000.92,0000.77,0000.99,0000.06,0000.08,-000.02,0000.12,0000.01,25.0,05.7,0674.0,31.1
2020-07-10T00:16:00Z,00000380,00000600,0002.82,0001.61,0000.83,0000.40,-000.03,-000.07,0000.08,-000.05,0000.15,25.0,05.8,0673.9,31.1
2020-07-10T00:17:00Z,00000380,00000600,0001.53,0001.29,0000.42,0000.92,0000.20,0000.02,0000.01,0000.15,-000.03,25.0,05.9,0674.0,31.1
2020-07-10T00:18:00Z,00000380,00000600,0001.43,0001.63,-000.08,0000.44,0000.24,-000.02,0000.31,0000.17,0000.19,25.0,05.8,0673.9,31.1
2020-07-10T00:19:00Z,00000380,00000600,0001.70,0001.26,0000.42,0000.51,0000.09,-000.10,-000.02,0000.03,-000.14,25.0,05.8,0673.9,31.1
2020-07-10T00:20:00Z,00000380,00000600,0003.36,0001.71,0000.66,0000.25,0000.45,-000.10,0000.08,0000.13,0000.23,25.0,05.8,0673.9,31.1
2020-07-10T00:21:00Z,00000380,00000600,0002.23,0001.25,0000.41,0000.76,0000.65,-000.17,0000.13,0000.10,0000.08,25.0,05.9,0673.9,31.1
2020-07-10T00:22:00Z,00000380,00000600,0002.11,0001.24,0000.89,0000.33,0000.52,-000.14,0000.05,0000.01,0000.15,25.0,05.9,0673.9,31.1
2020-07-10T00:23:00Z,00000380,00000600,0000.48,0001.29,0000.28,0000.71,0000.08,-000.11,-000.10,0000.06,-000.06,25.0,05.9,0673.9,31.1
2020-07-10T00:24:00Z,00000380,00000600,0000.29,0001.42,0000.44,-000.09,0000.21,-000.11,0000.31,0000.23,0000.01,24.9,06.0,0674.0,31.1
2020-07-10T00:25:00Z,00000380,00000600,0001.58,0000.97,0000.69,0000.02,0000.35,-000.23,0000.04,-000.18,0000.17,25.0,06.0,0674.0,31.1
2020-07-10T00:26:00Z,00000380,00000600,0003.04,0000.91,0000.48,0001.13,0000.20,-000.14,0000.04,0000.26,0000.03,24.9,05.9,0674.0,31.1
2020-07-10T00:27:00Z,00000380,00000600,0001.64,0000.93,0000.59,-000.09,0000.22,0000.05,0000.14,-000.03,0000.03,24.9,06.1,0673.9,31.1
2020-07-10T00:28:00Z,00000380,00000600,0002.27,0001.73,0000.29,0000.22,0000.37,-000.37,-000.05,0000.10,0000.02,24.9,06.1,0674.0,31.1
2020-07-10T00:29:00Z,00000380,00000600,0001.65,0000.75,0000.29,0000.76,0000.55,-000.32,0000.15,0000.22,0000.07,24.9,06.1,0673.9,31.1
2020-07-10T00:30:00Z,00000380,00000600,0002.48,0001.23,0000.67,-000.11,0000.17,0000.25,0000.07,-000.00,0000.12,24.9,06.1,0673.9,31.1
2020-07-10T00:31:00Z,00000380,00000600,0001.25,0001.26,0000.82,0001.01,0000.27,0000.35,0000.07,0000.04,0000.01,24.9,06.1,0674.0,31.1
2020-07-10T00:32:00Z,00000380,00000600,0002.47,0001.81,0000.30,0000.85,0000.30,-000.03,-000.08,0000.13,0000.03,24.9,06.1,0674.0,31.1
2020-07-10T00:33:00Z,00000380,00000600,0001.54,0001.46,0000.66,0000.64,0000.33,-000.33,0000.16,-000.00,0000.15,24.9,06.1,0674.0,31.0
2020-07-10T00:34:00Z,00000380,00000600,0001.17,0001.48,0000.90,-000.20,0000.17,0000.17,0000.13,0000.15,0000.23,24.9,06.2,0674.0,31.1
2020-07-10T00:35:00Z,00000380,00000600,0001.76,0001.36,0000.50,0000.98,0000.20,-000.54,0000.04,0000.08,-000.05,24.9,06.3,0674.0,31.1
2020-07-10T00:36:00Z,00000380,00000600,0000.44,0001.35,0000.50,0000.37,0000.04,-000.20,0000.17,0000.16,0000.04,24.9,06.2,0674.0,31.1
2020-07-10T00:37:00Z,00000380,00000600,0000.98,0001.85,0000.49,0000.31,0000.22,-000.18,-000.13,-000.06,-000.09,24.9,06.3,0673.9,31.1
2020-07-10T00:38:00Z,00000380,00000600,0002.32,0001.42,0000.63,0000.58,0000.15,-000.16,0000.21,-000.06,0000.12,24.9,06.2,0673.9,31.1
2020-07-10T00:39:00Z,00000380,00000600,0001.70,0001.76,0001.01,-000.20,0000.37,-000.05,0000.22,0000.26,0000.14,24.8,06.3,0673.9,31.1
2020-07-10T00:40:00Z,00000380,00000600,0002.83,0001.50,0000.49,0001.19,0000.25,-000.15,-000.12,0000.03,0000.02,24.8,06.3,0673.9,31.1
2020-07-10T00:41:00Z,00000380,00000600,0002.69,0001.67,0000.75,-000.17,0000.35,0000.04,0000.15,0000.10,0000.13,24.8,06.4,0673.9,31.1
2020-07-10T00:42:00Z,00000380,00000600,0002.37,0001.23,0000.11,0001.44,0000.78,-000.52,-000.07,0000.09,-000.04,24.8,06.3,0673.9,31.1
2020-07-10T00:43:00Z,00000380,00000600,0001.80,0001.82,0000.82,0000.62,0000.33,0000.02,0000.12,-000.08,0000.07,24.8,06.3,0673.9,31.1
2020-07-10T00:44:00Z,00000380,00000600,0000.61,0001.66,0000.21,0000.96,0000.48,-000.06,0000.03,0000.13,0000.09,24.8,06.3,0673.9,31.0
2020-07-10T00:45:00Z,00000380,00000600,0002.59,0001.41,0000.66,0000.12,0000.40,0000.36,0000.10,-000.02,0000.02,24.8,06.3,0673.9,31.1
2020-07-10T00:46:00Z,00000380,00000600,0002.10,0001.65,0000.47,0000.10,0000.26,0000.20,-000.01,0000.13,-000.01,24.8,06.3,0673.9,31.1
2020-07-10T00:47:00Z,00000380,00000600,0001.65,0001.45,0000.35,-000.32,0000.35,-000.19,0000.12,0000.03,0000.06,24.8,06.3,0673.9,31.1
2020-07-10T00:48:00Z,00000380,00000600,0001.66,0001.24,0000.93,0000.21,0000.30,0000.05,0000.06,-000.05,0000.08,24.8,06.3,0673.9,31.1
2020-07-10T00:49:00Z,00000380,00000600,0002.22,0001.46,0000.51,0000.77,0000.34,-000.07,0000.20,0000.06,0000.04,24.8,06.3,0673.9,31.1
2020-07-10T00:50:00Z,00000380,00000600,0002.75,0001.43,0000.80,0000.21,0000.25,0000.06,-000.09,0000.10,0000.09,24.8,06.2,0673.9,31.1
2020-07-10T00:51:00Z,00000380,00000600,0003.06,0001.24,0000.61,0000.57,0000.67,-000.06,0000.09,0000.12,0000.06,24.8,06.2,0673.9,31.1
2020-07-10T00:52:00Z,00000380,00000600,0002.72,0001.61,0000.86,0000.01,0000.44,0000.05,0000.05,-000.05,0000.13,24.8,06.3,0673.9,31.1
2020-07-10T00:53:00Z,00000380,00000600,0001.64,0000.98,0000.68,0001.12,0000.40,0000.50,0000.15,0000.26,0000.03,24.8,06.2,0673.9,31.1
2020-07-10T00:54:00Z,00000380,00000600,0002.01,0001.52,0000.41,-000.10,-000.27,-000.37,-000.07,-000.14,0000.01,24.8,06.3,0673.9,31.1
2020-07-10T00:55:00Z,00000380,00000600,0002.23,0001.35,0001.45,0000.53,0000.32,0000.48,0000.04,0000.04,0000.06,24.8,06.2,0673.9,31.1
2020-07-10T00:56:00Z,00000380,00000600,0001.20,0001.25,0000.64,0000.73,0000.04,-000.40,0000.11,0000.08,0000.11,24.8,06.3,0673.9,31.1
2020-07-10T00:57:00Z,00000380,40000600,,,,,,,,,,24.8,05.9,0673.7,31.0
2020-07-10T00:58:00Z,00000380,60000600,,,,,,,,,,24.9,05.9,0672.8,31.1
2020-07-10T00:59:00Z,00000380,20000600,,,,,,,,,,25.0,05.9,0672.8,31.1
2020-07-10T01:00:00Z,00000380,20000600,,,,,,,,,,25.0,05.9,0672.8,31.1
2020-07-10T01:01:00Z,00000380,20000600,,,,,,,,,,25.0,05.9,0672.8,31.1
2020-07-10T01:02:00Z,00000380,20000600,,,,,,,,,,25.0,05.9,0672.8,31.0
2020-07-10T01:03:00Z,00000380,60000600,,,,,,,,,,25.0,05.9,0672.8,31.0
2020-07-10T01:04:00Z,00000380,40000600,0002.09,0001.18,0000.73,0000.73,0000.31,0000.46,0000.05,-000.06,0000.15,24.8,06.1,0673.7,31.0
2020-07-10T01:05:00Z,00000380,00000600,0002.57,0001.10,0001.05,0000.26,0000.33,0000.23,0000.12,0000.13,0000.02,24.8,06.2,0673.8,31.0
2020-07-10T01:06:00Z,00000380,00000600,0002.84,0000.84,0001.13,-000.13,0000.30,0000.34,0000.03,0000.03,0000.10,24.8,06.2,0673.8,31.1
2020-07-10T01:07:00Z,00000380,00000600,0001.96,0001.08,0001.38,-000.45,0000.38,0000.11,0000.14,0000.10,0000.09,24.7,06.2,0673.8,31.1
2020-07-10T01:08:00Z,00000380,00000600,0001.09,0001.37,0001.11,-000.27,0000.24,0000.17,0000.13,-000.06,-000.01,24.7,06.2,0673.8,31.0
2020-07-10T01:09:00Z,00000380,00000600,0002.47,0001.33,0001.23,0000.47,0000.03,0000.37,0000.02,0000.21,0000.23,24.7,06.2,0673.8,31.0
2020-07-10T01:10:00Z,00000380,00000600,0002.15,0001.07,0001.00,0000.17,0000.07,0000.06,0000.01,-000.05,-000.17,24.7,06.2,0673.8,31.1
2020-07-10T01:11:00Z,00000380,00000600,0002.48,0001.15,0000.23,0000.33,0000.44,0000.20,0000.08,-000.05,0000.07,24.7,06.2,0673.8,31.1
2020-07-10T01:12:00Z,00000380,00000600,0001.50,0000.49,0001.01,0000.24,0000.01,0000.04,-000.01,0000.17,0000.04,24.7,06.2,0673.8,31.1
2020-07-10T01:13:00Z,00000380,00000600,0002.05,0000.96,0001.30,0000.52,-000.06,0000.17,0000.17,0000.34,0000.16,24.7,06.2,0673.8,31.1
2020-07-10T01:14:00Z,00000380,00000600,0002.56,0001.44,0000.52,0001.16,0000.13,0000.09,-000.01,-000.12,0000.04,24.7,06.2,0673.8,31.0
2020-07-10T01:15:00Z,00000380,00000600,0000.46,0001.16,0000.66,0000.52,0000.26,0000.11,0000.08,0000.11,-000.06,24.7,06.2,0673.8,31.1
2020-07-10T01:16:00Z,00000380,00000600,0001.71,0001.09,0000.53,-000.26,0000.50,0000.31,0000.04,0000.05,0000.17,24.7,06.2,0673.7,31.1
2020-07-10T01:17:00Z,00000380,00000600,0001.25,0000.99,0000.77,0000.24,-000.11,0000.22,0000.08,0000.14,0000.12,24.6,06.2,0673.8,31.1
2020-07-10T01:18:00Z,00000380,00000600,0003.19,0001.13,0000.42,-000.07,0000.34,-000.18,0000.16,-000.06,-000.01,24.6,06.2,0673.7,31.0
2020-07-10T01:19:00Z,00000380,00000600,0002.09,0001.37,0000.81,0000.12,0000.02,0000.19,-000.11,0000.11,0000.06,24.6,06.2,0673.7,31.0
2020-07-10T01:20:00Z,00000380,00000600,0003.48,0001.50,0001.20,0000.02,0000.20,0000.13,0000.19,0000.12,0000.00,24.6,06.2,0673.7,31.1
2020-07-10T01:21:00Z,00000380,00000600,0002.39,0000.99,0000.29,0000.65,0000.20,-000.01,-000.09,-000.05,0000.10,24.6,06.3,0673.7,31.1
2020-07-10T01:22:00Z,00000380,00000600,0001.26,0000.94,0000.83,0000.57,0000.28,-000.44,0000.25,0000.11,0000.02,24.6,06.2,0673.7,31.0
2020-07-10T01:23:00Z,00000380,00000600,0001.99,0000.65,0000.44,0000.43,0000.16,0000.18,-000.01,0000.10,0000.12,24.6,06.3,0673.7,31.0
2020-07-10T01:24:00Z,00000380,00000600,0001.13,0000.19,0000.90,0000.13,0000.08,0000.31,0000.03,0000.07,0000.02,24.6,06.3,0673.7,31.0
2020-07-10T01:25:00Z,00000380,00000600,0002.28,0001.43,0000.44,0001.23,0000.24,0000.57,0000.04,0000.14,0000.01,24.6,06.2,0673.7,31.0
2020-07-10T01:26:00Z,00000380,00000600,0001.17,0001.38,0000.89,0000.36,0000.26,0000.17,0000.09,-000.06,0000.06,24.6,06.3,0673.7,31.0
2020-07-10T01:27:00Z,00000380,00000600,0002.18,0001.10,0000.71,-000.28,0000.23,-000.03,0000.02,0000.11,0000.10,24.6,06.2,0673.7,31.0
2020-07-10T01:28:00Z,00000380,00000600,0001.43,0001.36,0000.70,-000.15,0000.32,0000.17,0000.05,0000.15,0000.05,24.6,06.2,0673.7,31.1
2020-07-10T01:29:00Z,00000380,00000600,0001.75,0001.42,0000.95,0001.11,0000.04,0000.42,0000.00,-000.09,-000.03,24.6,06.2,0673.7,31.1
2020-07-10T01:30:00Z,00000380,00000600,0002.04,0001.45,0001.44,0000.60,-000.03,0000.55,0000.16,0000.07,0000.21,24.6,06.1,0673.7,31.0
2020-07-10T01:31:00Z,00000380,00000600,0002.13,0000.80,0000.92,0000.45,0000.28,0000.07,0000.01,0000.08,-000.06,24.6,06.1,0673.7,31.0
2020-07-10T01:32:00Z,00000380,00000600,0002.30,0001.31,0001.01,0000.59,0000.02,0000.17,0000.08,0000.06,0000.11,24.6,06.1,0673.7,31.0
2020-07-10T01:33:00Z,00000380,00000600,0001.45,0001.03,0000.88,0000.79,0000.45,0000.12,-000.00,-000.02,0000.00,24.6,06.1,0673.7,31.1
2020-07-10T01:34:00Z,00000380,00000600,0001.56,0001.11,0000.87,0001.11,0000.26,0000.38,0000.07,0000.03,-000.08,24.6,06.0,0673.7,31.1
2020-07-10T01:35:00Z,00000380,00000600,0001.48,0000.87,0000.85,0000.22,0000.43,0000.20,0000.04,0000.12,0000.23,24.6,06.1,0673.7,31.0
2020-07-10T01:36:00Z,00000380,00000600,0002.27,0001.31,0000.71,0000.56,0000.02,0000.65,0000.01,-000.10,-000.04,24.6,06.1,0673.7,31.1
2020-07-10T01:37:00Z,00000380,00000600,0003.01,0001.34,0000.57,-000.15,0000.18,-000.21,0000.10,0000.26,0000.15,24.6,06.0,0673.7,31.0
2020-07-10T01:38:00Z,00000380,00000600,0002.01,0000.71,0000.71,0000.44,0000.00,0000.15,0000.05,-000.01,-000.14,24.6,06.0,0673.7,31.1
2020-07-10T01:39:00Z,00000380,00000600,0002.36,0001.46,0000.96,0000.21,-000.05,0000.21,0000.03,0000.11,0000.20,24.6,06.0,0673.7,31.0
2020-07-10T01:40:00Z,00000380,00000600,0002.57,0000.97,0001.05,0000.30,0000.35,0000.24,0000.03,-000.03,-000.03,24.5,06.0,0673.7,31.0
2020-07-10T01:41:00Z,00000380,00000600,0002.89,0000.86,0001.10,-000.45,0000.12,0000.02,0000.14,0000.04,0000.11,24.6,05.9,0673.6,31.0
2020-07-10T01:42:00Z,00000380,00000600,0002.02,0000.82,0000.68,0000.56,0000.36,0000.12,-000.04,0000.12,-000.02,24.5,05.9,0673.6,31.0
2020-07-10T01:43:00Z,00000380,00000600,0002.07,0001.09,0000.73,0000.36,0000.38,0000.28,0000.09,-000.01,0000.14,24.5,05.9,0673.6,31.0
2020-07-10T01:44:00Z,00000380,00000600,0001.50,0001.32,0000.93,0000.04,0000.10,-000.21,0000.09,0000.19,-000.05,24.5,05.8,0673.6,31.0
2020-07-10T01:45:00Z,00000380,00000600,0001.66,0000.93,0000.69,0000.08,0000.28,0000.32,0000.17,0000.08,0000.09,24.5,05.9,0673.6,31.0
2020-07-10T01:46:00Z,00000380,00000600,0001.79,0000.79,0000.36,0000.52,0000.26,-000.03,-000.08,0000.08,0000.07,24.5,05.9,0673.6,31.0
2020-07-10T01:47:00Z,00000380,00000600,0000.87,0001.19,0001.19,0000.56,0000.42,0000.43,0000.04,-000.04,-000.08,24.5,05.8,0673.6,31.0
2020-07-10T01:48:00Z,00000380,00000600,0001.71,0000.77,0000.55,0000.11,0000.40,0000.34,0000.16,0000.07,0000.17,24.5,05.9,0673.6,31.0
2020-07-10T01:49:00Z,00000380,00000600,0002.37,0000.97,0000.70,0000.59,0000.09,0000.25,0000.02,0000.00,0000.20,24.5,05.9,0673.6,31.0
2020-07-10T01:50:00Z,00000380,00000600,0002.87,0001.20,0000.74,0001.57,0000.54,-000.03,-000.00,-000.03,-000.01,24.5,05.8,0673.6,31.0
2020-07-10T01:51:00Z,00000380,00000600,0001.61,0000.98,0000.57,0000.24,0000.27,0000.40,0000.11,0000.25,-000.05,24.5,05.7,0673.6,31.0
2020-07-10T01:52:00Z,00000380,00000600,0002.46,0000.96,0000.75,0000.04,0000.18,0000.15,-000.06,-000.02,0000.02,24.5,05.7,0673.6,31.0
2020-07-10T01:53:00Z,00000380,00000600,0002.28,0001.33,0000.65,-000.35,0000.38,0000.58,0000.09,0000.06,0000.01,24.5,05.7,0673.6,31.0
2020-07-10T01:54:00Z,00000380,00000600,0000.74,0001.31,0001.02,0000.00,0000.25,0000.19,0000.06,-000.04,0000.13,24.5,05.7,0673.6,31.0
2020-07-10T01:55:00Z,00000380,00000600,0002.53,0001.27,0001.07,0000.26,0000.04,-000.08,0000.13,0000.14,0000.15,24.5,05.7,0673.6,31.0
2020-07-10T01:56:00Z,00000380,00000600,0001.52,0000.94,0000.17,0000.43,0000.20,-000.20,0000.02,0000.02,-000.02,24.5,05.7,0673.6,31.0
2020-07-10T01:57:00Z,00000380,40000600,,,,,,,,,,24.5,06.1,0673.6,31.0
2020-07-10T01:58:00Z,00000380,60000600,,,,,,,,,,24.6,05.5,0672.6,31.0
2020-07-10T01:59:00Z,00000380,20000600,,,,,,,,,,24.7,05.5,0672.5,31.0
2020-07-10T02:00:00Z,00000380,20000600,,,,,,,,,,24.7,05.5,0672.5,31.0
2020-07-10T02:01:00Z,00000380,20000600,,,,,,,,,,24.7,05.5,0672.5,31.0
2020-07-10T02:02:00Z,00000380,20000600,,,,,,,,,,24.8,05.5,0672.5,31.0
2020-07-10T02:03:00Z,00000380,60000600,,,,,,,,,,24.8,05.5,0672.5,31.0
2020-07-10T02:04:00Z,00000380,40000600,0002.46,0001.47,0000.52,0000.70,0000.01,0000.29,0000.01,0000.13,0000.06,24.6,05.5,0673.5,31.0
2020-07-10T02:05:00Z,00000380,00000600,0000.77,0000.99,0001.03,0000.52,0000.13,-000.07,0000.06,0000.03,-000.05,24.5,05.6,0673.5,31.0
2020-07-10T02:06:00Z,00000380,00000600,0002.09,0000.66,0000.70,0000.29,-000.22,-000.16,0000.26,-000.07,0000.21,24.5,05.6,0673.5,31.0
2020-07-10T02:07:00Z,00000380,00000600,0000.71,0000.89,0000.55,0000.65,0000.16,0000.01,-000.08,0000.18,0000.05,24.5,05.6,0673.5,31.0
2020-07-10T02:08:00Z,00000380,00000600,0001.67,0000.61,0000.29,0000.06,-000.44,0000.39,0000.03,0000.16,-000.10,24.5,05.7,0673.5,31.0
2020-07-10T02:09:00Z,00000380,00000600,0000.88,0001.03,0000.72,0000.33,0000.04,0000.26,0000.15,-000.01,0000.23,24.4,05.6,0673.5,31.0
2020-07-10T02:10:00Z,00000380,00000600,0001.02,0001.76,0001.02,0000.80,0000.13,-000.03,0000.02,0000.11,0000.02,24.4,05.8,0673.5,31.1
2020-07-10T02:11:00Z,00000380,00000600,0001.11,0001.49,0000.48,-000.52,0000.29,-000.17,0000.18,0000.14,0000.10,24.5,05.8,0673.5,31.0
2020-07-10T02:12:00Z,00000380,00000600,0003.02,0000.83,0000.39,-000.37,0000.22,-000.26,0000.06,0000.13,0000.10,24.5,05.7,0673.5,31.0
2020-07-10T02:13:00Z,00000380,00000600,0001.39,0001.52,0000.46,0000.73,0000.45,0000.00,0000.26,0000.02,0000.01,24.4,05.8,0673.5,31.0
2020-07-10T02:14:00Z,00000380,00000600,0001.82,0001.10,0000.39,-000.02,-000.01,0000.61,-000.05,0000.10,0000.20,24.4,05.8,0673.5,31.0
2020-07-10T02:15:00Z,00000380,00000600,0001.25,0001.52,0000.54,0000.32,0000.04,0000.16,-000.03,0000.02,-000.12,24.4,05.9,0673.4,31.0
2020-07-10T02:16:00Z,00000380,00000600,0002.50,0001.11,0000.15,0000.31,0000.41,0000.25,0000.22,0000.17,0000.11,24.4,05.9,0673.4,31.0
2020-07-10T02:17:00Z,00000380,00000600,0001.92,0000.99,0000.79,0000.12,0000.31,0000.65,-000.02,0000.10,0000.11,24.4,06.0,0673.4,31.0
2020-07-10T02:18:00Z,00000380,00000600,0002.36,0000.87,0000.64,0000.18,0000.31,0000.33,0000.11,-000.05,0000.17,24.4,06.0,0673.4,31.0
2020-07-10T02:19:00Z,00000380,00000600,0001.94,0001.15,0000.64,0000.63,0000.16,-000.01,0000.11,0000.26,-000.04,24.4,06.0,0673.4,31.0
2020-07-10T02:20:00Z,00000380,00000600,0002.61,0001.90,0000.49,0000.56,-000.14,0000.19,0000.23,0000.04,0000.05,24.4,06.2,0673.4,31.0
2020-07-10T02:21:00Z,00000380,00000600,0001.79,0001.15,0000.45,0000.30,0000.06,0000.24,-000.01,0000.04,-000.02,24.4,06.3,0673.4,31.0
2020-07-10T02:22:00Z,00000380,00000600,0000.43,0001.52,0000.52,0000.11,0000.24,0000.63,0000.25,0000.22,0000.26,24.4,06.2,0673.4,31.0
2020-07-10T02:23:00Z,00000380,00000600,0001.50,0001.40,0000.49,0000.45,0000.09,0000.11,0000.00,-000.03,-000.02,24.4,06.3,0673.4,31.0
2020-07-10T02:24:00Z,00000380,00000600,0003.08,0001.23,0000.77,0000.51,-000.05,-000.36,0000.02,0000.10,0000.16,24.4,06.3,0673.4,31.0
2020-07-10T02:25:00Z,00000380,00000600,0001.19,0001.45,0000.43,0000.33,0000.04,0000.06,0000.11,0000.09,-000.01,24.3,06.3,0673.4,31.0
2020-07-10T02:26:00Z,00000380,00000600,0001.96,0001.71,0000.43,-000.01,0000.23,-000.08,0000.20,0000.28,0000.17,24.3,06.3,0673.4,31.0
2020-07-10T02:27:00Z,00000380,00000600,0002.57,0001.65,0000.24,0000.48,0000.24,-000.21,0000.04,-000.14,0000.01,24.3,06.4,0673.4,31.0
2020-07-10T02:28:00Z,00000380,00000600,0002.56,0001.02,0000.24,-000.13,0000.28,0000.23,-000.07,0000.08,0000.01,24.4,06.4,0673.4,31.0
2020-07-10T02:29:00Z,00000380,00000600,0001.35,0001.36,0000.21,-000.14,0000.36,0000.55,0000.09,0000.09,0000.12,24.3,06.4,0673.4,31.0
2020-07-10T02:30:00Z,00000380,00000600,0002.46,0001.03,0000.51,-000.69,-000.08,0000.12,0000.10,0000.14,-000.02,24.3,06.4,0673.4,31.0
2020-07-10T02:31:00Z,00000380,00000600,0001.10,0001.07,0000.49,0000.22,0000.03,0000.39,0000.15,0000.11,0000.20,24.3,06.4,0673.4,31.0
2020-07-10T02:32:00Z,00000380,00000600,0001.78,0001.23,0000.58,-000.27,-000.37,0000.18,0000.10,0000.17,0000.03,24.3,06.4,0673.3,31.0
2020-07-10T02:33:00Z,00000380,00000600,0001.47,0001.04,0000.84,0000.09,0000.20,0000.25,0000.08,0000.01,0000.01,24.3,06.6,0673.3,31.0
2020-07-10T02:34:00Z,00000380,00000600,0002.50,0001.07,0000.43,-000.07,-000.19,0000.11,-000.02,-000.02,0000.09,24.3,06.5,0673.3,31.0
2020-07-10T02:35:00Z,00000380,00000600,0001.46,0001.40,0000.51,0000.29,0000.47,-000.04,0000.16,0000.05,0000.06,24.3,06.6,0673.3,31.0
2020-07-10T02:36:00Z,00000380,00000600,0003.19,0000.96,0000.55,0000.25,0000.43,-000.20,0000.06,-000.00,0000.05,24.3,06.6,0673.3,31.0
2020-07-10T02:37:00Z,00000380,00000600,0002.87,0001.36,0000.50,0000.85,0000.10,0000.04,0000.08,0000.28,0000.14,24.3,06.5,0673.3,31.0
2020-07-10T02:38:00Z,00000380,00000600,0002.36,0001.15,0000.54,0000.09,0000.13,0000.33,0000.13,-000.09,0000.05,24.3,06.6,0673.3,31.0
2020-07-10T02:39:00Z,00000380,00000600,0002.06,0001.58,0000.77,-000.25,0000.17,0000.32,0000.15,0000.20,0000.10,24.3,06.6,0673.3,31.0
2020-07-10T02:40:00Z,00000380,00000600,0002.44,0001.64,0000.73,-000.07,-000.28,0000.04,0000.04,0000.10,-000.03,24.3,06.7,0673.3,31.0
2020-07-10T02:41:00Z,00000380,00000600,0000.45,0001.90,0001.11,0000.69,0000.20,0000.32,0000.02,0000.06,0000.21,24.3,06.7,0673.3,31.0
2020-07-10T02:42:00Z,00000380,00000600,0003.05,0001.47,0000.06,0000.36,0000.09,0000.19,0000.13,0000.23,0000.04,24.3,06.7,0673.3,31.0
2020-07-10T02:43:00Z,00000380,00000600,0001.74,0001.91,0000.33,0000.21,0000.35,0000.29,0000.14,-000.07,-000.01,24.3,06.8,0673.3,31.0
2020-07-10T02:44:00Z,00000380,00000600,0002.99,0001.32,0000.54,0000.52,0000.23,-000.06,0000.08,0000.19,0000.10,24.2,06.8,0673.3,31.0
2020-07-10T02:45:00Z,00000380,00000600,0001.98,0001.22,0000.44,0000.30,-000.20,0000.23,0000.07,0000.08,0000.11,24.2,06.8,0673.3,31.0
2020-07-10T02:46:00Z,00000380,00000600,0002.70,0001.38,0000.47,0001.20,0000.06,-000.11,0000.09,0000.13,0000.19,24.2,06.8,0673.3,31.0
2020-07-10T02:47:00Z,00000380,00000600,0002.21,0000.99,0000.60,0000.34,0000.12,-000.11,0000.05,-000.12,-000.14,24.3,06.8,0673.3,31.0
2020-07-10T02:48:00Z,00000380,00000600,0001.79,0001.66,0000.63,0000.73,0000.13,0000.27,0000.10,0000.04,0000.19,24.3,06.8,0673.2,31.0
2020-07-10T02:49:00Z,00000380,00000600,0002.58,0000.97,0000.85,-000.08,0000.09,0000.21,-000.07,0000.11,0000.11,24.2,06.8,0673.2,31.0
2020-07-10T02:50:00Z,00000380,00000600,0002.45,0001.51,0001.05,0000.52,0000.15,0000.07,0000.22,0000.14,0000.10,24.2,06.7,0673.2,31.0
2020-07-10T02:51:00Z,00000380,00000600,0002.77,0001.50,0001.10,0000.82,-000.01,0000.62,0000.06,0000.09,-000.07,24.2,06.8,0673.2,31.0
2020-07-10T02:52:00Z,00000380,00000600,0002.26,0001.25,0000.62,-000.30,0000.24,-000.01,0000.14,0000.00,0000.23,24.2,06.9,0673.2,31.0
2020-07-10T02:53:00Z,00000380,00000600,0002.24,0001.68,0000.55,0000.43,0000.17,0000.22,-000.07,0000.18,-000.16,24.2,06.9,0673.2,31.0
2020-07-10T02:54:00Z,00000380,00000600,0002.88,0001.91,0000.41,0000.77,-000.04,0000.18,0000.02,-000.09,0000.13,24.2,06.8,0673.2,31.0
2020-07-10T02:55:00Z,00000380,00000600,0002.04,0001.47,0000.87,0000.50,0000.10,0000.03,0000.27,0000.33,0000.06,24.2,06.8,0673.2,31.0
2020-07-10T02:56:00Z,00000380,00000600,0001.95,0001.70,0000.23,0000.05,0000.16,0000.52,-000.07,-000.08,0000.08,24.2,06.8,0673.2,31.0
2020-07-10T02:57:00Z,00000380,40000600,,,,,,,,,,24.2,06.7,0673.2,31.0
2020-07-10T02:58:00Z,00000380,60000600,,,,,,,,,,24.3,06.5,0672.2,31.0
2020-07-10T02:59:00Z,00000380,20000600,,,,,,,,,,24.4,06.5,0672.1,31.0
2020-07-10T03:00:00Z,00000380,20000600,,,,,,,,,,24.4,06.5,0672.1,31.0
2020-07-10T03:01:00Z,00000380,20000600,,,,,,,,,,24.4,06.5,0672.1,31.0
2020-07-10T03:02:00Z,00000380,20000600,,,,,,,,,,24.4,06.5,0672.1,31.0
2020-07-10T03:03:00Z,00000380,60000600,,,,,,,,,,24.5,06.5,0672.1,31.0
2020-07-10T03:04:00Z,00000380,40000600,0002.59,0001.61,0000.91,0000.80,0000.25,0000.49,0000.14,0000.05,0000.13,24.3,06.7,0673.1,31.0
2020-07-10T03:05:00Z,00000380,00000600,0002.18,0002.13,0000.81,0000.88,0000.15,0000.26,0000.05,0000.15,0000.06,24.2,06.8,0673.1,31.0
2020-07-10T03:06:00Z,00000380,00000600,0002.66,0001.25,0000.71,0001.00,0000.24,0000.23,0000.04,0000.03,0000.01,24.2,06.9,0673.1,31.0
2020-07-10T03:07:00Z,00000380,00000600,0003.27,0001.70,0000.78,0000.49,0000.14,0000.40,0000.09,0000.05,0000.21,24.2,06.9,0673.1,31.0
2020-07-10T03:08:00Z,00000380,00000600,0002.67,0000.79,0001.26,0000.49,-000.05,0000.56,-000.01,0000.18,-000.12,24.2,06.9,0673.1,31.0
2020-07-10T03:09:00Z,00000380,00000600,0002.99,0001.69,0001.22,-000.07,0000.29,0000.39,0000.13,-000.05,0000.08,24.2,06.8,0673.1,31.0
2020-07-10T03:10:00Z,00000380,00000600,0002.84,0001.33,0000.72,0000.90,-000.22,0000.39,0000.09,0000.08,0000.09,24.1,06.9,0673.1,31.0